| time (UTC) | temp F | wind direction | speed knots | gust knots | rain 1hr in | rain 24hr in | rain mn in | humidity % | barometer mb |
| 20260504023702 | 59 | 209 | 3.5 | 4.3 | 0.00 | 0.00 | 0.00 | 36 | 1000.7 |
| 20260504022212 | 58 | 276 | 1.7 | 2.6 | 0.00 | 0.00 | 0.00 | 37 | 1000.9 |
| 20260504020857 | 58 | 280 | 0.9 | 2.6 | 0.00 | 0.00 | 0.00 | 36 | 1001.0 |
| 20260504015402 | 58 | 0 | 0.0 | 2.6 | 0.00 | 0.00 | 0.00 | 36 | 1001.3 |
| 20260504014057 | 58 | 242 | 0.9 | 0.9 | 0.00 | 0.00 | 0.00 | 36 | 1001.5 |
| 20260504012832 | 59 | 0 | 0.0 | 0.9 | 0.00 | 0.00 | 0.00 | 34 | 1001.7 |
| 20260504011442 | 61 | 0 | 0.0 | 1.7 | 0.00 | 0.00 | 0.00 | 33 | 1001.7 |
| 20260504010237 | 61 | 267 | 1.7 | 1.7 | 0.00 | 0.00 | 0.00 | 33 | 1001.8 |
| 20260504005001 | 62 | 280 | 2.6 | 3.5 | 0.00 | 0.00 | 0.00 | 31 | 1002.2 |
| 20260504003637 | 63 | 291 | 7.0 | 9.6 | 0.00 | 0.00 | 0.00 | 30 | 1002.5 |
| 20260504002355 | 63 | 283 | 0.9 | 5.2 | 0.00 | 0.00 | 0.00 | 32 | 1002.4 |
| 20260504001102 | 63 | 279 | 7.8 | 8.7 | 0.00 | 0.00 | 0.00 | 30 | 1002.4 |
| 20260503235757 | 63 | 315 | 3.5 | 3.5 | 0.00 | 0.00 | 0.00 | 32 | 1002.7 |
| 20260503234347 | 64 | 291 | 6.1 | 10.4 | 0.00 | 0.00 | 0.00 | 30 | 1002.5 |
| 20260503232927 | 64 | 321 | 0.9 | 4.3 | 0.00 | 0.00 | 0.00 | 31 | 1002.5 |
| 20260503231622 | 63 | 284 | 4.3 | 7.8 | 0.00 | 0.00 | 0.00 | 30 | 1002.8 |
| 20260503230247 | 64 | 305 | 3.5 | 11.3 | 0.00 | 0.00 | 0.00 | 30 | 1003.1 |
| 20260503225037 | 62 | 271 | 3.5 | 12.2 | 0.00 | 0.00 | 0.00 | 31 | 1003.1 |
| 20260503223757 | 64 | 297 | 6.1 | 13.9 | 0.00 | 0.00 | 0.00 | 28 | 1003.1 |
| 20260503222332 | 65 | 308 | 6.1 | 11.3 | 0.00 | 0.00 | 0.00 | 30 | 1003.0 |
| 20260503220952 | 64 | 275 | 2.6 | 16.5 | 0.00 | 0.00 | 0.00 | 32 | 1002.9 |
| 20260503215602 | 65 | 295 | 9.6 | 9.6 | 0.00 | 0.00 | 0.00 | 29 | 1003.1 |
| 20260503214332 | 64 | 318 | 5.2 | 12.2 | 0.00 | 0.00 | 0.00 | 30 | 1003.1 |
| 20260503213007 | 64 | 295 | 5.2 | 13.9 | 0.00 | 0.00 | 0.00 | 31 | 1003.1 |
| 20260503211622 | 64 | 292 | 4.3 | 14.8 | 0.00 | 0.00 | 0.00 | 33 | 1003.5 |
| 20260503210142 | 64 | 287 | 3.5 | 7.8 | 0.00 | 0.00 | 0.00 | 32 | 1003.5 |
| 20260503204907 | 63 | 302 | 4.3 | 16.5 | 0.00 | 0.00 | 0.00 | 31 | 1003.6 |
| 20260503203527 | 62 | 269 | 9.6 | 13.0 | 0.00 | 0.00 | 0.00 | 31 | 1003.7 |
| 20260503202047 | 63 | 275 | 5.2 | 10.4 | 0.00 | 0.00 | 0.00 | 31 | 1003.9 |
| 20260503200707 | 63 | 335 | 8.7 | 10.4 | 0.00 | 0.00 | 0.00 | 32 | 1004.1 |
| 20260503195402 | 62 | 292 | 2.6 | 10.4 | 0.00 | 0.00 | 0.00 | 32 | 1004.0 |
| 20260503194142 | 61 | 289 | 10.4 | 18.2 | 0.00 | 0.00 | 0.00 | 31 | 1004.5 |
| 20260503192647 | 62 | 267 | 2.6 | 7.0 | 0.00 | 0.00 | 0.00 | 29 | 1004.7 |
| 20260503191357 | 61 | 326 | 11.3 | 13.0 | 0.00 | 0.00 | 0.00 | 27 | 1004.5 |
| 20260503185942 | 61 | 266 | 6.1 | 14.8 | 0.00 | 0.00 | 0.00 | 26 | 1004.6 |
| 20260503184555 | 60 | 306 | 7.0 | 17.4 | 0.00 | 0.00 | 0.00 | 27 | 1004.8 |
| 20260503183327 | 62 | 338 | 6.1 | 9.6 | 0.00 | 0.00 | 0.00 | 26 | 1004.9 |
| 20260503182007 | 61 | 271 | 7.0 | 8.7 | 0.00 | 0.00 | 0.00 | 24 | 1005.0 |
| 20260503180628 | 61 | 340 | 3.5 | 7.8 | 0.00 | 0.00 | 0.00 | 25 | 1005.0 |
| 20260503175217 | 60 | 313 | 6.1 | 10.4 | 0.00 | 0.00 | 0.00 | 25 | 1005.3 |
| 20260503173922 | 59 | 292 | 0.9 | 12.2 | 0.00 | 0.00 | 0.00 | 26 | 1005.3 |
| 20260503172612 | 59 | 315 | 5.2 | 16.5 | 0.00 | 0.00 | 0.00 | 26 | 1005.3 |
| 20260503171257 | 59 | 306 | 3.5 | 13.0 | 0.00 | 0.00 | 0.00 | 26 | 1005.3 |
| 20260503131042 | 53 | 325 | 1.7 | 4.3 | 0.00 | 0.00 | 0.00 | 68 | 1005.3 |
| 20260503120151 | 48 | 300 | 0.9 | 4.3 | 0.00 | 0.00 | 0.00 | 72 | 1004.9 |
| 20260503100117 | 43 | 10 | 0.9 | 2.6 | 0.00 | 0.00 | 0.00 | 82 | 1005.1 |
| 20260503081557 | 48 | 224 | 0.9 | 1.7 | 0.00 | 0.00 | 0.00 | 71 | 1005.4 |
| 20260503080127 | 49 | 0 | 0.0 | 0.9 | 0.00 | 0.00 | 0.00 | 72 | 1005.5 |
| 20260503071752 | 49 | 0 | 0.0 | 1.7 | 0.00 | 0.00 | 0.00 | 74 | 1006.0 |
| 20260503070530 | 50 | 180 | 1.7 | 2.6 | 0.00 | 0.00 | 0.00 | 72 | 1005.9 |
| 20260503054047 | 49 | 0 | 0.0 | 0.9 | 0.00 | 0.00 | 0.00 | 81 | 1007.2 |
| 20260503052832 | 50 | 165 | 0.9 | 1.7 | 0.00 | 0.00 | 0.00 | 76 | 1007.2 |
| 20260503051447 | 50 | 76 | 0.9 | 1.7 | 0.00 | 0.00 | 0.00 | 78 | 1007.4 |
| 20260503050247 | 51 | 91 | 0.9 | 1.7 | 0.00 | 0.00 | 0.00 | 76 | 1007.5 |
| 20260503044827 | 51 | 0 | 0.0 | 0.0 | 0.00 | 0.00 | 0.00 | 76 | 1007.5 |
| 20260503043522 | 51 | 325 | 0.9 | 1.7 | 0.00 | 0.00 | 0.00 | 74 | 1007.7 |
| 20260503042232 | 51 | 0 | 0.0 | 0.9 | 0.00 | 0.00 | 0.00 | 75 | 1007.5 |
| 20260503040822 | 52 | 124 | 1.7 | 1.7 | 0.00 | 0.00 | 0.00 | 74 | 1007.8 |
| 20260503035612 | 53 | 262 | 0.9 | 1.7 | 0.00 | 0.00 | 0.00 | 68 | 1008.1 |
| 20260503034127 | 53 | 314 | 0.9 | 0.9 | 0.00 | 0.00 | 0.00 | 68 | 1008.3 |
| 20260503032907 | 54 | 318 | 2.6 | 4.3 | 0.00 | 0.00 | 0.00 | 66 | 1008.5 |
| 20260503031451 | 54 | 331 | 1.7 | 6.1 | 0.00 | 0.00 | 0.00 | 62 | 1008.6 |
| 20260503030147 | 55 | 283 | 4.3 | 8.7 | 0.00 | 0.00 | 0.00 | 60 | 1008.7 |
| 20260503024812 | 55 | 326 | 1.7 | 2.6 | 0.00 | 0.00 | 0.00 | 58 | 1008.7 |